Location: Go�ngahuizen
(53.0821°N, 5.8849°E)
Time: 17:24:01
(UTC+00:00)

Cosmos 1864 Rocket - Pass Details

Date: 09 April 2020
Orbit: 951 x 997 km, 82.9° (Epoch: 24 May)

Event Time Altitude Azimuth Distance (km) Brightness Sun altitude
Rises 23:39:01 0° 348° (NNW) 3,722 8.7 -28.9°
Reaches altitude 10° 23:41:33 10° 347° (NNW) 2,773 7.8 -28.9°
Maximum altitude 23:47:54 73° 264° (W) 1,044 4.5 -28.8°
Enters shadow 23:48:07 72° 246° (WSW) 1,048 4.4 -28.8°
